Location: ????????
(55.5667°N, 37.5833°E)
Time: 01:59:21
(UTC+00:00)

Dummy Sat-02 - Pass Details

Date: 14 April 2026
Orbit: 473 x 483 km, 86.3° (Epoch: 20 May)

Event Time Altitude Azimuth Distance (km) Brightness Sun altitude
Exits shadow 18:53:16 32° 185° (S) 860 5.4 -17.1°
Maximum altitude 18:54:52 89° 270° (W) 489 4.5 -17.3°
Drops below altitude 10° 18:58:31 10° 5° (N) 1,669 7.9 -17.6°
Sets 19:00:37 0° 6° (N) 2,552 8.9 -17.8°
